Simultaneous Nadir Overpasses (SNOs) Predictions

Prediction of SNOs near US between AQUA and NPP Satellite Orbit:

Table of predicted SNOs near US for the next 10.0 days since TLE Epoch: 11/29/2019
Index Date (AQUA) Time (AQUA) AQUA Lat,Lon Date (NPP) Time (NPP) NPP Lat,Lon Distance(km) Time Diff (sec)
1 11/30/2019 09:23:39 22.45,-113.67 11/30/2019 09:15:59 22.52,-114.14 48.68 460
2 12/03/2019 06:30:08 46.33, -65.04 12/03/2019 06:30:27 46.71, -67.06 160.70 19
3 12/03/2019 08:08:01 49.89, -88.35 12/03/2019 08:10:53 50.39, -90.87 188.29 172
4 12/03/2019 09:46:54 49.89,-113.07 12/03/2019 09:52:21 50.50,-116.19 232.73 327
5 12/05/2019 19:06:08 49.96, -92.53 12/05/2019 19:01:07 49.62, -94.38 138.68 301
6 12/05/2019 20:45:01 49.96,-117.25 12/05/2019 20:42:35 49.51,-119.71 184.00 146
7 12/08/2019 10:11:50 26.81,-124.95 12/08/2019 10:05:23 26.96,-125.67 73.54 387




NCC Satellite Simultaneous Nadir Overpasses (SNOs) Prediction Service
